TimeCDT,TemperatureF,Dew PointF,Humidity,Sea Level PressureIn,VisibilityMPH,Wind Direction,Wind SpeedMPH,Gust SpeedMPH,PrecipitationIn,Events,Conditions,WindDirDegrees,DateUTC
12:54 AM,64.0,61.0,90,29.81,9.0,NW,8.1,-,0.18,Rain-Thunderstorm,Light Thunderstorms and Rain,320,2013-10-03 05:54:00
1:34 AM,64.4,60.8,88,29.83,5.0,NNW,8.1,-,0.09,Rain,Rain,330,2013-10-03 06:34:00
1:54 AM,64.0,61.0,90,29.81,7.0,Calm,Calm,-,0.13,Rain,Light Rain,0,2013-10-03 06:54:00
2:24 AM,62.6,60.8,94,29.85,6.0,WSW,5.8,-,0.08,Rain-Thunderstorm,Light Rain,250,2013-10-03 07:24:00
2:37 AM,62.6,60.8,94,29.86,7.0,WSW,6.9,-,0.11,Rain-Thunderstorm,Light Thunderstorms and Rain,240,2013-10-03 07:37:00
2:54 AM,63.0,61.0,93,29.82,6.0,WSW,8.1,-,0.16,Rain,Rain,240,2013-10-03 07:54:00
3:05 AM,62.6,60.8,94,29.85,8.0,WSW,8.1,-,0.02,Rain-Thunderstorm,Light Rain,240,2013-10-03 08:05:00
3:23 AM,62.6,60.8,94,29.84,7.0,SSW,4.6,-,0.06,Rain,Light Rain,200,2013-10-03 08:23:00
3:52 AM,62.6,60.8,94,29.82,4.0,Calm,Calm,-,0.16,Rain-Thunderstorm,Thunderstorms and Rain,0,2013-10-03 08:52:00
3:54 AM,63.0,61.0,93,29.78,4.0,Calm,Calm,-,0.17,Rain-Thunderstorm,Thunderstorms and Rain,0,2013-10-03 08:54:00
4:03 AM,62.6,60.8,94,29.81,5.0,South,6.9,-,0.03,Rain-Thunderstorm,Rain,180,2013-10-03 09:03:00
4:24 AM,62.6,60.8,94,29.79,8.0,SE,5.8,-,0.07,Rain,Light Rain,140,2013-10-03 09:24:00
4:45 AM,62.6,60.8,94,29.80,10.0,SSW,8.1,-,0.10,Rain-Thunderstorm,Light Rain,210,2013-10-03 09:45:00
4:54 AM,63.0,61.0,93,29.77,9.0,SW,5.8,-,0.11,Rain-Thunderstorm,Light Rain,220,2013-10-03 09:54:00
5:08 AM,62.6,60.8,94,29.76,10.0,SE,13.8,19.6,0.01,Rain,Light Rain,130,2013-10-03 10:08:00
5:22 AM,62.6,60.8,94,29.80,10.0,WNW,8.1,-,0.01,Rain,Light Rain,290,2013-10-03 10:22:00
5:54 AM,62.1,60.1,93,29.76,10.0,NNE,4.6,-,0.01,,Partly Cloudy,20,2013-10-03 10:54:00
6:54 AM,60.1,57.9,93,29.77,10.0,Calm,Calm,-,0.01,,Clear,0,2013-10-03 11:54:00
7:54 AM,60.1,57.9,93,29.77,10.0,NNE,5.8,-,N/A,,Clear,20,2013-10-03 12:54:00
8:54 AM,62.1,60.1,93,29.76,10.0,NE,3.5,-,N/A,,Clear,40,2013-10-03 13:54:00
9:54 AM,64.9,61.0,87,29.75,10.0,ENE,4.6,-,N/A,,Clear,70,2013-10-03 14:54:00
10:54 AM,68.0,61.0,78,29.76,10.0,Calm,Calm,-,N/A,,Clear,0,2013-10-03 15:54:00
11:54 AM,71.1,60.1,68,29.76,10.0,Calm,Calm,-,N/A,,Overcast,0,2013-10-03 16:54:00
12:54 PM,75.9,60.1,58,29.74,10.0,North,4.6,-,N/A,,Mostly Cloudy,360,2013-10-03 17:54:00
1:54 PM,79.0,60.1,52,29.72,10.0,North,5.8,-,N/A,,Overcast,350,2013-10-03 18:54:00
2:54 PM,75.0,59.0,57,29.73,10.0,North,10.4,-,N/A,,Overcast,360,2013-10-03 19:54:00
3:54 PM,78.1,60.1,54,29.73,10.0,North,12.7,-,N/A,,Mostly Cloudy,360,2013-10-03 20:54:00
4:54 PM,75.0,61.0,62,29.73,10.0,NNE,11.5,-,N/A,,Overcast,20,2013-10-03 21:54:00
5:54 PM,73.0,62.1,68,29.74,10.0,North,11.5,-,N/A,,Overcast,360,2013-10-03 22:54:00
6:54 PM,69.1,61.0,75,29.75,10.0,North,5.8,-,N/A,,Mostly Cloudy,350,2013-10-03 23:54:00
7:54 PM,66.9,61.0,81,29.76,10.0,North,5.8,-,N/A,,Scattered Clouds,360,2013-10-04 00:54:00
8:54 PM,64.9,61.0,87,29.76,10.0,North,5.8,-,N/A,,Partly Cloudy,10,2013-10-04 01:54:00
9:54 PM,64.0,61.0,90,29.76,10.0,North,5.8,-,N/A,,Clear,360,2013-10-04 02:54:00
11:52 PM,64.4,60.8,88,29.78,9.0,North,10.4,-,0.01,Rain,Light Rain,350,2013-10-04 04:52:00
11:54 PM,64.0,61.0,90,29.74,6.0,North,12.7,-,0.05,Rain-Thunderstorm,Light Rain,350,2013-10-04 04:54:00
11:59 PM,62.6,60.8,94,29.78,2.0,NW,10.4,-,0.07,Rain-Thunderstorm,Heavy Thunderstorms and Rain,310,2013-10-04 04:59:00